Location: Freshwater
(47.0370°N, 52.8852°W)
Time: 11:43:34
(UTC+00:00)

ISS - Visible Passes

Search period start: 20 May 2022 00:00
Search period end: 30 May 2022 00:00
Orbit: 414 x 421 km, 51.6° (Epoch: 20 May)

Date Brightness Start Highest point End Pass type
(mag) Time Alt. Az. Time Alt. Az. Time Alt. Az.
20 May -2.5 00:24:36 10° W 00:27:49 42° NNW 00:31:02 10° ENE visible
20 May -2.4 02:01:51 10° WNW 02:05:02 39° N 02:06:47 21° ENE visible
20 May -1.5 03:38:40 10° WNW 03:39:41 18° WNW 03:39:41 18° WNW visible
20 May -2.8 23:36:28 10° W 23:39:47 51° NNW 23:43:04 10° ENE visible
21 May -2.2 01:13:49 10° WNW 01:16:58 36° N 01:20:06 10° ENE visible
21 May -2.9 02:50:42 10° WNW 02:53:12 46° NW 02:53:12 46° NW visible
22 May -2.2 00:25:43 10° WNW 00:28:52 35° N 00:32:00 10° ENE visible
22 May -3.2 02:02:44 10° WNW 02:06:02 55° NNE 02:06:44 44° ENE visible
23 May -2.7 01:14:43 10° WNW 01:17:58 44° NNE 01:20:15 17° E visible
23 May -2.0 02:51:32 10° WNW 02:53:10 25° W 02:53:10 25° W visible
24 May -2.4 00:26:40 10° WNW 00:29:51 38° N 00:33:01 10° E visible
24 May -3.8 02:03:28 10° WNW 02:06:42 77° WSW 02:06:42 77° WSW visible
25 May -3.7 01:15:26 10° WNW 01:18:48 73° NNE 01:20:15 31° ESE visible
25 May -1.2 02:52:37 10° W 02:53:09 13° W 02:53:09 13° W visible
26 May -3.2 00:27:23 10° WNW 00:30:41 54° NNE 00:33:47 11° E visible
26 May -2.6 02:04:17 10° WNW 02:06:42 31° WSW 02:06:42 31° WSW visible
27 May -3.6 01:16:05 10° WNW 01:19:23 54° SSW 01:20:15 40° SSE visible
28 May -3.8 00:27:58 10° WNW 00:31:20 82° SSW 00:33:50 17° ESE visible
28 May -1.4 02:05:38 10° W 02:06:44 14° WSW 02:06:44 14° WSW visible
29 May -2.3 01:16:58 10° W 01:19:43 23° SW 01:20:20 22° SSW visible
